Date,TemperatureHighF,TemperatureAvgF,TemperatureLowF,DewpointHighF,DewpointAvgF,DewpointLowF,HumidityHigh,HumidityAvg,HumidityLow,PressureMaxIn,PressureMinIn,WindSpeedMaxMPH,WindSpeedAvgMPH,GustSpeedMaxMPH,PrecipitationSumIn
2013-1-19,59.7,49.6,46.2,47.0,39.0,-99.9,96,74,52,29.97,29.77,4,-28,0,0.00
2013-1-20,61.3,52.7,45.0,49.6,46.2,38.0,98,79,59,29.83,29.70,8,3,0,0.00
2013-1-21,63.0,52.6,41.2,49.6,42.7,34.0,80,69,56,29.85,29.68,13,3,0,0.00
2013-1-22,52.7,41.0,29.5,42.4,18.4,8.9,68,41,22,30.11,29.76,7,2,0,0.00
2013-1-23,44.4,34.9,26.6,30.6,13.0,3.5,58,41,24,30.20,29.92,7,3,0,0.00
2013-1-24,50.7,38.7,26.4,39.5,22.2,6.9,74,52,34,30.29,29.77,12,5,0,0.00
2013-1-25,39.2,30.5,23.4,33.4,22.1,7.8,96,72,45,30.27,29.82,5,2,0,0.18
2013-1-26,43.9,35.1,29.5,34.4,30.7,27.1,95,84,69,30.11,29.84,6,3,0,0.00
2013-1-27,46.0,36.4,28.9,30.4,27.9,24.3,96,74,45,30.29,30.11,8,3,0,0.00
2013-1-28,57.4,46.8,40.3,46.5,41.0,36.2,88,81,67,30.18,29.99,4,2,0,0.01
2013-1-29,56.8,49.8,47.3,53.3,49.2,47.0,99,98,88,29.92,29.90,4,2,0,0.00
2013-1-30,67.1,61.5,56.3,60.7,58.7,55.7,99,91,80,29.84,29.35,14,5,0,0.00
2013-1-31,65.1,56.5,52.2,61.8,45.5,27.0,96,69,37,29.66,29.23,15,8,0,0.29
2013-2-1,53.4,48.3,30.7,34.8,23.3,10.3,56,39,21,30.09,29.76,12,6,0,0.00
2013-2-2,43.0,38.0,33.6,41.1,26.9,14.3,93,67,38,30.15,29.76,4,1,0,0.00
2013-2-3,52.9,45.1,37.4,43.2,33.5,28.8,84,65,42,29.75,29.58,7,2,0,0.00
2013-2-4,47.8,41.6,30.2,38.5,28.5,22.7,74,60,38,29.89,29.72,6,2,0,0.00
2013-2-5,59.0,51.5,44.6,47.6,42.3,35.8,87,71,55,29.82,29.67,10,4,0,0.00
2013-2-6,65.8,54.8,45.0,47.4,41.9,37.6,93,65,37,30.04,29.75,6,3,0,0.00
2013-2-7,61.3,53.0,44.6,54.2,48.8,42.7,97,86,65,30.06,29.62,15,5,0,2.05
2013-2-8,61.3,55.9,46.9,61.0,54.9,45.8,99,96,77,29.61,29.23,10,6,0,2.45
2013-2-9,55.2,45.9,36.0,33.7,26.6,22.6,76,50,30,30.15,29.78,6,2,0,0.00
2013-2-10,57.0,43.5,29.7,45.2,35.4,27.1,91,75,43,30.28,30.10,7,2,0,0.00
2013-2-11,61.0,57.6,48.6,59.3,54.9,46.1,97,91,80,30.11,29.73,12,6,0,0.20
2013-2-12,53.6,53.1,52.7,51.6,51.3,51.0,94,94,93,29.79,29.76,2,0,0,0.01
2013-2-13,57.6,52.0,48.4,55.3,50.3,46.7,98,94,84,29.80,29.43,6,3,0,0.53
2013-2-14,52.7,48.0,41.5,46.7,40.1,37.1,94,75,58,29.90,29.59,6,2,0,0.00
2013-2-15,59.4,47.2,37.6,43.7,39.2,36.6,98,77,44,29.91,29.77,5,1,0,0.00
2013-2-16,55.9,45.3,34.9,44.2,39.3,33.4,95,81,62,29.76,29.49,8,4,0,0.11
2013-2-17,39.7,33.7,28.4,33.1,21.1,10.8,95,63,32,30.12,29.65,10,4,0,0.03
2013-2-18,49.5,44.9,25.2,38.2,25.2,15.2,67,46,31,30.29,30.14,9,4,0,0.00
2013-2-19,60.3,51.2,40.5,53.9,46.7,38.1,97,85,66,30.13,29.72,13,5,0,0.29
2013-2-20,57.7,56.9,56.1,25.4,23.2,22.1,30,27,25,29.84,29.82,7,4,0,0.00
2013-2-21,55.8,43.2,32.7,36.5,31.6,23.4,80,65,34,30.06,29.89,7,2,0,0.00
2013-2-22,52.3,44.8,39.6,47.0,36.8,28.9,95,74,63,30.13,29.89,7,4,0,0.00
2013-2-23,60.6,53.3,48.4,60.0,52.5,47.5,99,97,94,29.88,29.61,5,2,0,0.90
2013-2-24,60.8,50.6,46.6,51.0,48.0,46.3,99,92,64,29.71,29.51,4,2,0,0.01
2013-2-25,47.8,42.8,40.3,44.3,35.6,32.3,99,77,60,30.00,29.83,10,6,0,0.00
2013-2-26,64.9,57.7,41.7,63.6,56.4,37.2,98,96,84,29.91,29.41,10,6,0,1.11
2013-2-27,56.7,53.3,50.2,56.4,50.8,41.7,99,91,66,29.57,29.43,14,4,0,0.00
2013-2-28,55.6,54.5,53.2,37.8,36.4,35.0,51,50,49,29.52,29.52,4,4,0,0.00
2013-3-1,46.8,45.9,44.8,34.9,34.4,34.0,66,64,63,29.69,29.68,2,1,0,0.00
2013-3-2,55.0,42.5,36.1,33.6,31.9,29.6,81,68,42,29.69,29.57,6,2,0,0.00
2013-3-3,49.8,44.3,36.0,29.4,27.7,26.4,70,53,40,29.69,29.65,4,3,0,0.00
2013-3-4,37.9,37.9,37.9,21.4,21.4,21.4,51,51,51,29.89,29.88,3,2,0,0.00
2013-3-6,59.7,48.3,42.4,55.8,36.8,26.8,89,66,42,29.71,29.31,17,8,0,0.09
2013-3-7,58.6,51.1,42.4,33.9,31.9,30.7,71,49,36,29.92,29.72,8,5,0,0.00
2013-3-8,56.1,48.5,40.5,30.3,28.2,26.2,62,46,33,30.02,29.89,10,6,0,0.00
2013-3-9,64.0,45.6,40.3,34.9,32.5,30.4,76,63,32,30.12,30.05,6,3,0,0.00
2013-3-10,64.2,51.1,46.9,45.7,44.8,41.2,94,80,43,30.14,30.09,5,3,0,0.00
2013-3-11,48.4,47.3,46.2,47.0,45.8,44.8,95,94,93,30.10,30.02,4,2,0,0.00
2013-3-12,61.0,59.5,58.8,60.1,58.7,56.6,99,97,91,29.75,29.64,12,5,0,1.54
2013-3-13,56.5,54.4,50.7,51.1,46.7,40.1,82,76,67,29.73,29.68,5,4,0,0.00
2013-3-15,53.4,53.4,53.4,41.9,41.9,41.9,65,65,65,29.81,29.81,7,7,0,0.00
2013-3-16,59.5,56.8,55.2,51.6,49.7,47.4,81,77,75,29.75,29.56,12,8,0,0.00
2013-3-17,49.8,48.5,47.7,43.7,43.3,42.5,83,82,79,29.98,29.89,10,6,0,0.00
2013-3-18,49.1,48.7,48.4,45.7,44.6,44.0,88,86,84,29.95,29.91,8,6,0,0.00
2013-3-19,55.8,55.3,54.9,55.2,54.6,54.1,98,98,97,29.62,29.60,1,0,0,0.29
2013-3-20,52.7,52.7,52.7,21.4,21.4,21.4,29,29,29,29.92,29.92,3,3,0,0.00
2013-3-21,57.2,54.8,52.9,31.5,30.3,29.4,41,39,36,29.53,29.52,8,6,0,0.00
2013-3-22,48.4,47.0,45.7,35.4,31.1,25.1,63,54,43,29.84,29.83,5,4,0,0.00
2013-3-23,58.8,49.0,41.5,39.9,33.8,28.6,86,57,32,29.85,29.71,5,2,0,0.00
2013-3-24,57.0,47.9,41.7,54.1,44.4,38.4,97,88,68,29.75,29.22,16,4,0,0.42
2013-3-25,51.8,50.9,50.4,40.0,36.9,35.3,64,59,56,29.40,29.39,9,8,0,0.00
2013-3-26,44.6,43.2,41.0,32.2,31.9,31.6,69,64,61,29.89,29.84,5,2,0,0.00
2013-3-27,58.3,43.9,34.3,32.3,29.2,25.6,78,60,29,29.95,29.88,6,3,0,0.00
2013-3-28,60.8,51.7,34.0,29.8,27.9,25.4,71,42,28,30.01,29.94,5,2,0,0.00
2013-3-29,56.3,51.2,37.9,42.4,36.1,29.4,72,57,36,30.11,30.01,10,4,0,0.00
2013-3-30,63.0,57.3,48.4,48.5,45.3,40.9,86,65,46,30.04,29.93,7,3,0,0.00
2013-3-31,64.0,57.0,47.5,55.2,51.5,44.4,97,82,69,29.94,29.67,16,6,0,0.04
2013-4-1,63.0,58.3,55.6,58.5,55.7,54.2,96,91,80,29.70,29.61,9,4,0,0.01
2013-4-2,63.0,53.4,46.4,54.5,41.6,33.5,96,66,35,29.95,29.69,7,3,0,0.00
2013-4-3,58.1,49.7,46.4,45.8,39.7,33.3,93,70,39,30.12,29.93,7,3,0,0.00
2013-4-4,61.0,51.2,45.3,60.4,44.0,35.0,99,77,59,30.15,29.58,13,5,0,1.78
2013-4-5,61.3,52.3,44.6,61.0,48.9,43.5,99,89,69,29.83,29.54,12,3,0,0.18
2013-4-6,63.7,50.9,40.6,46.5,41.9,37.9,99,75,44,30.13,29.83,8,3,0,0.00
2013-4-7,70.3,56.8,43.3,55.3,49.4,40.9,98,78,54,30.12,29.98,6,3,0,0.00
2013-4-8,72.0,64.7,58.3,61.1,57.8,53.7,88,79,68,30.04,29.93,8,4,0,0.00
2013-4-9,73.4,66.0,60.8,63.4,60.5,57.8,91,83,71,30.04,29.91,9,5,0,0.00
2013-4-10,74.7,65.7,60.8,63.9,61.2,59.6,99,86,67,29.96,29.81,12,6,0,0.00
2013-4-11,76.3,67.3,61.9,67.8,63.6,59.8,96,88,75,29.84,29.68,9,5,0,0.00
2013-4-12,71.4,66.6,64.2,67.8,64.7,62.7,99,94,87,29.69,29.49,13,6,0,0.97
2013-4-13,71.1,62.4,52.5,63.9,54.6,47.6,99,77,52,29.83,29.55,10,4,0,0.00
2013-4-14,75.7,62.8,50.4,59.0,53.6,48.5,98,74,46,29.94,29.83,5,2,0,0.00
2013-4-15,74.3,65.7,58.6,62.6,60.0,55.1,93,82,67,30.00,29.79,16,4,0,0.55
2013-4-16,79.5,68.6,62.2,66.0,62.0,58.6,97,81,58,30.08,29.98,6,3,0,0.00
2013-4-17,77.0,67.4,56.7,63.9,60.5,55.2,98,80,62,30.05,29.94,5,2,0,0.00
2013-4-18,78.4,70.0,61.2,64.9,62.7,58.8,96,79,61,30.02,29.89,6,2,0,0.00
2013-4-19,77.2,70.6,66.2,70.5,66.8,64.1,95,88,80,29.90,29.68,16,6,0,0.25
2013-4-20,70.5,58.9,52.3,67.9,53.7,46.6,99,83,71,30.06,29.66,15,4,0,0.36
2013-4-21,64.8,56.0,48.6,49.0,44.9,37.3,93,68,48,30.26,30.05,14,6,0,0.00
2013-4-22,56.7,53.7,50.0,53.4,50.3,44.7,97,89,82,30.22,29.97,14,5,0,0.49
2013-4-23,67.1,57.6,52.5,55.6,52.8,50.2,97,85,62,30.01,29.91,8,4,0,0.00
2013-4-24,71.2,60.7,47.7,62.0,55.9,46.8,98,85,69,30.04,29.87,10,3,0,0.00
2013-4-25,73.6,63.3,52.7,63.4,57.4,48.3,94,81,66,30.09,29.87,9,4,0,0.04
2013-4-26,73.8,60.3,47.5,51.2,45.9,37.4,97,64,31,30.22,30.07,9,3,0,0.00
2013-4-27,76.8,63.4,53.8,55.2,48.1,39.5,91,62,28,30.20,30.10,10,3,0,0.00
2013-4-28,75.9,65.0,51.8,57.7,49.1,38.1,83,59,28,30.11,29.93,6,2,0,0.00
2013-4-29,67.1,64.7,62.6,63.0,60.1,56.5,96,86,75,29.93,29.79,10,3,0,0.31
2013-4-30,80.8,68.5,61.5,65.1,62.5,59.5,98,83,55,29.91,29.79,7,2,0,0.00
2013-5-1,76.5,66.6,59.9,66.0,61.0,57.7,94,83,63,30.06,29.88,7,3,0,0.08
2013-5-2,71.4,64.4,60.4,63.7,59.6,55.7,96,85,63,30.09,30.00,10,4,0,0.08
2013-5-3,72.1,62.7,56.8,59.7,54.8,49.4,92,76,55,30.01,29.94,11,6,0,0.00
2013-5-4,67.5,58.9,55.2,58.3,55.5,51.6,96,89,71,29.94,29.84,11,5,0,0.30
2013-5-5,74.8,64.2,56.7,64.5,59.8,54.7,97,86,70,29.86,29.77,9,4,0,0.06
2013-5-6,73.0,66.3,61.5,65.0,61.8,59.2,96,86,70,29.79,29.67,9,4,0,0.80
2013-5-7,72.0,63.2,55.6,61.7,57.9,54.3,98,84,62,29.78,29.66,7,2,0,0.02
2013-5-8,74.7,66.2,56.7,62.1,59.0,54.5,96,78,52,29.85,29.75,10,4,0,0.00
2013-5-9,75.7,68.8,64.8,64.7,62.4,60.5,90,80,67,29.88,29.77,9,4,0,0.00
2013-5-10,77.4,70.5,64.8,67.6,65.2,62.7,94,84,66,29.90,29.82,9,4,0,0.00
2013-5-11,78.8,72.6,69.3,70.9,67.7,65.6,93,85,75,29.83,29.65,14,6,0,0.00
2013-5-12,80.1,72.4,66.6,67.3,64.2,52.3,93,76,59,29.77,29.57,11,4,0,0.00
2013-5-13,75.7,64.8,54.1,53.7,46.3,38.5,75,52,31,29.94,29.77,9,3,0,0.00
2013-5-14,74.7,62.6,47.8,51.3,41.8,33.2,80,50,24,30.06,29.95,10,3,0,0.00
2013-5-15,74.8,69.1,64.8,63.6,59.7,50.1,81,72,59,29.96,29.75,17,8,0,0.00
2013-5-16,78.1,71.9,67.3,67.3,65.1,62.6,86,79,69,29.79,29.72,11,6,0,0.00
2013-5-17,81.7,74.2,70.2,69.0,66.8,65.2,90,78,61,29.93,29.77,8,3,0,0.00
2013-5-18,81.9,74.2,67.5,72.4,68.3,65.1,93,82,73,29.98,29.91,8,2,0,0.00
2013-5-19,82.4,75.0,68.5,70.4,68.0,65.4,93,79,63,29.98,29.91,6,2,0,0.00
2013-5-20,82.0,74.8,70.0,70.3,68.2,65.6,90,81,65,29.97,29.86,10,4,0,0.00
2013-5-21,81.0,74.9,71.4,70.8,69.5,68.7,92,84,71,29.88,29.79,11,5,0,0.00
2013-5-22,83.3,76.6,72.5,73.3,70.8,69.5,91,83,71,29.86,29.77,10,5,0,0.00
2013-5-23,79.2,74.1,70.2,72.1,70.4,67.9,94,88,77,29.80,29.63,9,3,0,0.30
2013-5-24,84.0,74.0,60.1,71.1,62.9,47.0,94,70,46,29.93,29.57,6,3,0,0.00
2013-5-25,76.5,63.7,51.3,51.6,43.3,38.5,76,50,26,30.05,29.92,6,2,0,0.00
2013-5-26,78.1,67.7,56.7,57.8,55.2,51.7,88,66,46,30.04,29.95,5,1,0,0.00
2013-5-27,80.8,69.6,55.6,63.7,56.3,47.5,97,66,36,30.09,30.00,5,1,0,0.00
2013-5-28,82.2,75.1,68.5,69.0,65.7,63.0,87,74,59,30.08,29.99,5,2,0,0.00
2013-5-29,83.5,76.2,68.5,71.1,67.8,65.4,94,76,61,30.07,29.98,7,3,0,0.00
2013-5-30,87.6,77.0,66.6,72.9,69.4,64.3,94,78,62,30.09,30.01,6,2,0,0.00
2013-5-31,86.0,78.5,71.1,74.2,71.7,68.7,93,80,67,30.05,29.95,8,3,0,0.00
2013-6-1,84.4,78.2,73.8,73.3,71.5,70.4,90,80,68,29.99,29.88,10,4,0,0.00
2013-6-2,84.2,78.3,74.1,72.9,71.6,70.2,88,80,68,29.90,29.76,11,5,0,0.00
2013-6-3,81.1,75.1,69.4,74.4,71.5,67.2,94,89,80,29.77,29.65,9,5,0,0.56
2013-6-4,84.9,76.3,70.0,73.9,69.8,65.3,96,81,59,29.88,29.67,9,3,0,0.00
2013-6-5,85.3,75.9,68.9,65.9,64.1,61.6,86,68,46,29.89,29.82,7,3,0,0.00
2013-6-6,82.8,77.3,71.4,73.0,69.4,65.6,89,77,68,29.84,29.67,6,3,0,0.04
2013-6-8,82.8,78.2,76.5,75.6,74.0,73.3,91,87,79,29.89,29.76,11,6,0,0.00
2013-6-9,84.9,78.8,75.2,77.7,74.3,69.3,94,87,78,29.95,29.88,8,4,0,0.00
2013-6-10,84.6,79.0,75.2,76.4,74.3,71.7,92,86,76,29.93,29.77,14,6,0,0.00
2013-6-11,83.1,78.9,75.0,75.2,73.2,70.5,93,83,75,29.77,29.66,13,8,0,0.05
2013-6-12,88.2,81.1,73.8,76.5,73.5,69.5,95,79,59,29.76,29.66,9,4,0,0.00
2013-6-13,87.3,81.5,75.0,79.3,76.2,66.9,95,84,58,29.68,29.41,17,7,0,0.02
2013-6-14,86.0,75.2,68.4,69.0,62.9,57.3,95,68,42,29.81,29.47,10,3,0,0.24
2013-6-15,87.4,75.0,60.1,63.4,59.8,56.7,90,61,39,29.91,29.81,10,4,0,0.00
2013-6-16,84.0,78.6,75.6,69.7,67.1,64.3,76,68,57,29.96,29.86,14,7,0,0.00
2013-6-17,84.9,79.1,75.9,73.5,70.3,66.9,83,75,68,29.88,29.78,14,6,0,0.00
2013-6-18,85.8,78.8,72.1,77.2,74.1,70.3,94,86,74,29.80,29.60,13,7,0,0.53
2013-6-19,79.0,73.4,69.4,73.9,69.7,64.9,97,89,74,29.89,29.63,8,3,0,1.66
2013-6-20,86.7,75.7,68.5,70.7,65.1,56.0,92,73,36,29.99,29.86,8,4,0,0.00
2013-6-21,89.6,77.3,68.9,74.6,70.4,64.3,91,80,61,30.00,29.94,9,3,0,0.00
2013-6-22,82.9,75.6,72.0,74.7,71.8,68.8,96,88,73,30.00,29.95,5,2,0,1.10
2013-6-23,84.7,78.8,72.7,76.6,74.1,70.6,94,86,76,30.03,29.95,9,2,0,0.01
2013-6-24,85.6,79.9,76.8,77.1,75.0,73.3,92,85,76,30.04,29.91,10,5,0,0.00
2013-6-25,85.6,79.9,74.3,77.9,74.8,70.7,90,85,73,29.95,29.82,12,6,0,0.01
2013-6-26,85.8,80.7,77.7,77.7,75.3,72.9,91,84,75,29.86,29.74,14,7,0,0.00
2013-6-27,84.7,80.3,76.1,77.7,74.9,69.8,90,84,74,29.74,29.58,14,8,0,0.00
2013-6-28,85.1,81.0,77.4,78.2,76.6,71.5,92,87,80,29.61,29.44,17,9,0,0.03
2013-6-29,82.2,80.1,78.3,76.8,75.0,73.4,91,85,77,29.61,29.45,22,10,0,0.00
2013-6-30,82.8,77.6,72.5,76.9,74.1,71.3,97,89,82,29.72,29.57,14,5,0,2.06
2013-7-1,81.9,77.5,75.2,75.8,73.7,71.3,91,88,80,29.87,29.68,10,4,0,0.17
2013-7-2,89.2,80.5,73.4,77.8,74.6,71.1,93,83,69,30.02,29.87,10,3,0,0.09
2013-7-3,90.0,81.6,75.0,77.6,75.6,73.2,95,82,67,30.08,29.98,8,3,0,0.47
2013-7-4,88.9,82.7,77.5,77.1,74.7,72.3,87,77,66,30.11,30.05,6,2,0,0.00
2013-7-5,88.9,82.5,76.8,77.6,75.0,72.9,91,79,67,30.12,30.01,7,3,0,0.09
2013-7-6,88.5,82.2,78.4,75.5,73.7,72.4,84,76,63,30.08,29.97,9,3,0,0.00
2013-7-7,87.4,81.8,78.4,74.6,72.5,70.6,80,74,65,30.03,29.89,15,6,0,0.00
2013-7-8,86.5,81.7,78.8,74.9,72.7,71.0,81,74,65,30.00,29.92,11,6,0,0.00
2013-7-9,87.1,81.1,72.9,77.4,74.6,71.4,96,81,71,30.00,29.91,9,5,0,1.00
2013-7-10,88.0,82.1,78.8,77.4,74.4,73.1,86,78,68,29.94,29.80,10,6,0,0.00
2013-7-11,86.4,80.6,76.3,77.1,74.5,72.2,94,82,72,29.82,29.69,13,6,0,0.34
2013-7-12,80.4,76.9,71.4,75.1,73.0,70.2,97,88,80,29.79,29.68,11,3,0,3.14
2013-7-13,88.5,80.1,73.9,76.8,74.2,71.7,96,83,68,30.01,29.77,11,2,0,0.30
2013-7-14,91.4,82.9,76.3,77.1,74.9,71.1,89,78,62,30.08,30.00,8,3,0,0.02
2013-7-15,92.8,82.9,75.2,78.8,75.0,72.7,93,78,62,30.09,30.03,5,2,0,0.00
2013-7-16,91.6,83.0,74.7,77.6,74.9,72.2,93,77,62,30.06,29.96,9,3,0,0.00
2013-7-17,95.4,84.9,75.9,78.7,74.3,71.3,90,72,49,29.99,29.89,7,2,0,0.00
2013-7-18,90.9,82.9,73.9,75.7,73.1,70.8,93,74,56,29.94,29.86,8,2,0,0.00
2013-7-19,88.2,83.3,80.6,78.0,75.8,74.2,84,79,72,29.95,29.83,16,7,0,0.00
2013-7-20,87.1,81.9,75.6,78.2,74.7,73.5,94,79,70,29.89,29.79,17,8,0,0.45
2013-7-21,123.3,81.1,76.1,99.9,73.7,71.4,92,79,67,29.84,29.73,12,7,0,0.12
2013-7-22,86.2,81.3,78.1,76.1,74.0,72.5,84,79,70,29.76,29.64,13,6,0,0.00
2013-7-23,84.4,80.4,78.3,74.8,73.4,72.3,84,80,73,29.67,29.53,16,7,0,0.00
2013-7-24,89.1,81.4,77.7,77.2,74.2,72.1,85,79,67,29.61,29.52,9,4,0,0.00
2013-7-25,89.4,80.8,74.3,76.5,72.7,67.6,87,77,64,29.79,29.55,7,2,0,0.06
2013-7-26,89.2,81.6,70.7,73.3,69.8,66.6,87,68,52,29.87,29.79,6,3,0,0.00
2013-7-27,88.2,77.1,69.3,74.7,69.3,65.6,88,78,58,29.84,29.76,5,1,0,0.00
2013-7-28,87.6,81.2,75.6,77.1,73.8,71.0,89,79,69,29.83,29.68,12,4,0,0.33
2013-7-29,86.5,79.4,71.1,76.4,72.8,67.6,91,81,67,29.95,29.82,9,3,0,0.83
2013-7-30,87.4,78.0,71.2,77.2,72.3,68.1,90,83,66,30.00,29.93,5,1,0,0.00
2013-7-31,87.3,79.5,73.6,75.5,71.7,67.4,91,78,56,29.95,29.84,5,2,0,0.00
2013-8-1,81.9,78.8,71.6,75.8,74.3,69.1,93,86,79,29.83,29.69,13,5,0,0.95
2013-8-2,86.7,81.6,77.5,78.7,76.2,73.3,87,84,76,29.85,29.70,14,5,0,0.00
2013-8-3,87.3,82.3,79.7,79.5,77.2,75.7,88,84,74,29.85,29.73,11,6,0,0.00
2013-8-4,88.0,79.6,71.1,78.4,73.4,66.8,91,82,63,29.82,29.66,7,2,0,0.27
2013-8-5,89.4,76.7,65.5,70.1,64.0,57.4,92,68,40,29.88,29.80,6,1,0,0.00
2013-8-6,87.6,78.5,70.0,72.0,68.6,63.0,88,72,59,29.89,29.80,4,1,0,0.00
2013-8-7,87.4,80.1,71.4,75.6,72.4,67.7,90,78,63,29.91,29.85,4,1,0,0.00
2013-8-8,89.4,82.4,77.7,79.3,76.5,73.7,88,83,70,29.88,29.81,5,2,0,0.00
2013-8-9,88.0,82.9,80.6,79.9,77.5,76.2,87,84,76,29.90,29.82,11,7,0,0.00
2013-8-10,88.3,82.8,76.3,80.4,77.7,73.5,92,85,76,29.92,29.82,14,6,0,0.13
2013-8-11,89.8,83.8,76.3,80.4,77.7,73.8,92,82,74,29.93,29.82,8,4,0,0.00
2013-8-12,90.1,83.6,78.3,81.8,78.1,74.2,91,84,75,29.88,29.74,9,4,0,0.00
2013-8-13,87.6,83.8,77.0,81.1,78.8,71.8,94,85,79,29.74,29.59,16,8,0,0.08
2013-8-14,82.2,76.4,71.4,77.1,69.6,62.9,94,80,70,29.84,29.59,11,4,0,0.60
2013-8-15,71.8,68.8,66.0,67.0,64.3,62.7,93,86,73,29.91,29.83,7,3,0,1.16
2013-8-16,77.5,72.3,68.7,71.9,68.6,66.5,93,88,82,29.93,29.82,7,3,0,0.00
2013-8-17,81.1,74.0,69.3,76.5,71.0,65.6,94,90,84,29.93,29.85,6,2,0,0.42
2013-8-18,86.0,80.6,77.7,76.7,75.8,73.9,92,86,73,29.99,29.92,8,3,0,0.00
2013-8-19,88.2,77.2,73.9,79.3,74.3,71.8,95,91,74,29.96,29.87,5,2,0,0.26
2013-8-20,89.1,79.3,72.7,77.6,74.2,70.9,95,85,67,29.97,29.87,6,2,0,0.00
2013-8-21,89.2,81.1,73.6,79.2,75.9,71.4,95,85,69,30.01,29.91,4,1,0,0.00
2013-8-22,85.6,79.8,72.1,79.0,75.5,70.6,95,87,79,29.94,29.80,7,2,0,0.00
2013-8-23,88.9,80.3,71.1,79.2,75.8,70.2,97,87,72,29.82,29.70,10,3,0,0.34
2013-8-24,86.0,75.7,69.8,72.4,69.5,66.2,97,82,59,30.03,29.80,11,4,0,0.06
2013-8-25,83.3,77.0,67.6,69.6,67.0,64.8,91,72,60,30.12,30.05,8,4,0,0.00
2013-8-26,87.4,75.0,65.1,68.6,64.6,58.7,95,73,39,30.07,29.90,5,2,0,0.00
2013-8-27,84.2,75.9,66.4,69.9,66.3,63.2,92,74,52,29.90,29.76,12,4,0,0.00
2013-8-28,85.1,79.6,76.3,77.6,74.3,69.3,93,84,75,29.79,29.67,11,5,0,0.00
2013-8-29,90.7,81.4,73.4,79.5,76.1,71.6,96,85,68,29.77,29.61,7,3,0,0.66
2013-8-30,84.4,74.2,69.4,73.8,71.1,68.2,97,91,69,29.81,29.74,7,2,0,0.00
2013-8-31,88.0,84.4,80.1,77.8,76.2,75.0,92,77,71,29.78,29.69,5,2,0,0.00
2013-9-1,83.5,81.9,79.7,79.5,78.7,77.9,95,90,86,29.74,29.64,10,6,0,0.00
2013-9-2,86.4,81.9,73.4,82.1,79.4,73.1,99,92,86,29.71,29.60,16,7,0,0.21
2013-9-3,86.4,81.1,73.0,79.5,77.8,72.4,98,90,76,29.68,29.60,10,5,0,1.07
2013-9-4,88.9,83.9,72.9,78.2,76.4,72.3,98,79,71,29.85,29.80,4,2,0,0.01
2013-9-5,88.5,81.2,73.8,80.6,77.1,72.9,97,88,74,29.86,29.79,4,1,0,0.03
2013-9-6,84.9,75.7,70.0,77.6,72.5,67.7,97,90,74,29.89,29.79,10,2,0,0.44
2013-9-7,85.3,75.7,65.7,68.1,64.5,59.5,95,71,45,29.87,29.77,6,2,0,0.00
2013-9-8,85.3,81.2,77.4,73.5,71.2,68.5,84,72,65,29.76,29.66,8,5,0,0.00
2013-9-9,89.2,81.3,73.8,75.9,73.2,70.5,97,78,55,29.93,29.76,6,2,0,0.00
2013-9-10,90.9,81.2,72.5,75.2,72.6,69.5,97,77,51,30.01,29.92,7,2,0,0.00
2013-9-11,89.6,78.7,70.0,75.2,72.0,69.1,97,81,58,29.99,29.87,5,1,0,0.00
2013-9-12,86.4,78.4,70.5,76.4,73.0,69.6,98,84,66,29.88,29.59,8,3,0,0.00
2013-9-13,91.4,81.7,71.2,75.7,73.5,69.0,95,77,52,29.60,29.49,11,3,0,0.03
2013-9-14,83.3,72.9,67.1,69.9,67.4,64.3,98,84,63,29.89,29.59,9,4,0,0.07
2013-9-15,85.5,73.9,66.7,70.3,66.5,65.1,96,80,54,29.99,29.88,7,3,0,0.00
2013-9-16,86.0,74.5,68.2,76.3,71.5,67.3,99,91,71,29.92,29.81,6,1,0,0.73
2013-9-17,80.1,71.0,64.0,67.9,63.6,56.1,93,78,60,30.04,29.90,9,5,0,0.00
2013-9-18,81.5,69.7,59.4,65.1,60.8,57.3,98,75,52,30.03,29.94,8,4,0,0.00
2013-9-19,81.9,73.6,63.7,66.2,61.5,58.4,94,68,48,29.97,29.87,5,2,0,0.00
2013-9-20,83.7,74.6,66.6,66.8,64.6,62.4,96,73,51,29.89,29.77,5,1,0,0.00
2013-9-21,81.0,74.0,66.2,73.0,70.0,64.6,98,88,73,29.77,29.56,7,2,0,0.00
2013-9-22,80.6,73.9,69.4,75.7,71.0,64.0,99,91,81,29.61,29.45,9,3,0,1.11
2013-9-23,78.3,69.0,62.8,65.6,59.6,55.5,92,74,50,29.87,29.61,8,3,0,0.00
2013-9-24,77.0,65.5,54.7,59.2,56.8,54.4,99,76,50,29.90,29.75,5,1,0,0.00
2013-9-25,75.2,65.7,55.6,62.7,59.7,55.0,99,82,64,29.77,29.65,6,2,0,0.00
2013-9-26,80.6,70.2,62.6,68.3,64.1,61.7,97,82,55,29.76,29.64,7,3,0,0.03
2013-9-27,77.7,69.8,64.2,64.4,61.3,57.7,96,76,51,29.91,29.75,11,4,0,0.00
2013-9-28,81.0,69.8,62.8,65.7,63.0,60.5,96,80,58,29.95,29.87,9,4,0,0.00
2013-9-29,82.2,68.9,61.9,69.6,64.0,60.7,97,85,53,29.90,29.77,6,3,0,0.00
2013-9-30,79.9,67.0,58.5,65.1,60.8,57.9,99,82,57,29.85,29.75,6,1,0,0.00
2013-10-1,82.4,67.3,55.9,63.7,58.9,55.3,99,77,45,29.93,29.82,5,1,0,0.00
2013-10-2,82.0,71.0,60.1,70.6,64.8,59.0,97,82,57,29.93,29.83,7,2,0,0.00
2013-10-3,82.9,73.9,64.9,71.6,69.4,64.3,98,87,60,29.95,29.89,7,1,0,0.00
2013-10-4,83.7,74.6,65.5,72.2,69.4,64.9,99,85,62,29.95,29.87,6,1,0,0.00
2013-10-5,84.7,75.1,66.9,72.5,70.1,66.0,98,85,62,29.92,29.85,5,1,0,0.00
2013-10-6,84.2,77.0,69.3,75.0,72.2,68.4,99,86,68,29.89,29.78,3,1,0,0.00
2013-10-7,84.4,79.0,75.9,75.7,74.9,74.0,96,88,74,29.78,29.67,8,2,0,0.00
2013-10-8,77.0,66.5,63.7,74.8,66.2,63.4,99,99,93,29.86,29.70,11,4,0,2.02
2013-10-9,67.5,64.6,62.4,67.2,64.3,62.1,99,99,99,29.84,29.66,12,5,0,2.24
2013-10-10,68.2,63.1,60.1,65.2,62.2,59.8,99,97,89,29.70,29.62,7,3,0,0.01
2013-10-11,70.0,64.1,59.9,65.4,62.5,59.6,99,95,85,29.76,29.65,4,1,0,0.02
2013-10-12,72.1,66.6,62.8,67.7,65.1,62.5,99,95,86,29.83,29.73,3,0,0,0.00
2013-10-13,80.6,71.0,64.9,72.8,68.7,64.6,99,93,74,29.90,29.82,8,3,0,0.00
2013-10-14,74.1,70.4,66.9,70.5,68.3,64.7,97,93,84,29.92,29.86,10,5,0,0.00
2013-10-15,73.8,67.8,64.2,69.5,66.2,63.4,98,95,83,29.89,29.77,7,3,0,0.00
2013-10-16,76.5,70.0,67.1,71.8,68.4,66.5,98,95,82,29.80,29.73,7,2,0,0.00
2013-10-17,76.1,69.8,61.5,70.3,66.4,61.2,99,90,73,29.78,29.68,8,3,0,0.00
2013-10-18,79.2,72.0,68.0,70.9,68.6,66.7,98,90,69,29.80,29.68,6,2,0,0.05
2013-10-19,78.1,71.2,66.7,75.0,70.5,66.4,99,98,90,29.75,29.63,6,2,0,0.37
2013-10-20,72.1,65.6,60.1,70.2,60.6,56.8,97,84,69,29.90,29.66,10,3,0,0.00
2013-10-21,73.0,63.6,56.1,62.1,57.4,52.3,94,81,59,29.95,29.80,6,2,0,0.00
2013-10-22,71.2,63.8,59.4,62.7,58.7,54.5,96,84,68,29.80,29.65,3,1,0,0.03
2013-10-23,73.9,62.9,54.1,62.9,57.9,47.1,99,85,53,29.75,29.45,8,2,0,0.43
2013-10-24,62.8,52.2,43.3,46.2,40.8,37.0,88,67,40,29.99,29.76,8,2,0,0.00
2013-10-25,61.0,50.2,41.9,44.9,38.4,32.9,93,67,36,30.18,29.98,9,2,0,0.00
2013-10-26,64.4,51.1,39.0,48.3,42.2,37.1,94,74,50,30.18,29.93,5,1,0,0.00
2013-10-27,68.7,57.1,49.5,50.3,44.9,36.7,96,65,44,29.97,29.88,4,1,0,0.00
2013-10-28,72.7,59.2,47.8,59.3,52.0,47.1,99,80,44,30.09,29.97,3,0,0,0.00
2013-10-29,76.3,61.8,51.4,59.2,55.1,50.3,97,81,52,30.15,30.05,5,1,0,0.00
2013-10-30,74.1,63.0,54.9,63.5,58.2,54.4,99,86,58,30.14,30.01,5,1,0,0.00
2013-10-31,72.0,65.3,56.8,69.0,63.8,56.5,99,95,81,30.05,29.83,7,1,0,0.01
2013-11-1,74.8,72.1,67.3,73.3,70.7,66.7,99,95,91,29.82,29.54,11,6,0,0.10
2013-11-2,73.8,66.9,61.9,72.9,65.3,59.7,99,95,87,29.66,29.47,12,3,0,1.24
2013-11-3,66.2,57.1,51.1,60.9,47.6,41.6,96,72,46,30.14,29.65,7,3,0,0.00
2013-11-4,60.4,53.3,47.5,50.1,44.0,38.3,94,72,54,30.30,30.14,8,4,0,0.00
2013-11-5,74.1,62.1,51.8,61.4,56.3,50.0,95,82,57,30.26,30.19,9,4,0,0.00
2013-11-6,68.4,62.7,58.1,66.6,61.6,56.7,99,96,88,30.20,29.95,7,3,0,0.24
2013-11-7,70.3,66.0,56.1,68.4,64.6,46.1,99,96,69,29.90,29.70,8,2,0,0.28
2013-11-8,60.6,51.0,39.6,45.9,38.3,32.1,95,65,39,30.14,29.82,7,2,0,0.00
2013-11-9,63.3,51.5,38.1,54.1,45.5,37.8,99,82,57,30.23,30.02,4,1,0,0.00
2013-11-10,67.6,59.9,53.1,56.8,49.9,44.1,90,71,45,30.04,29.89,8,3,0,0.00
2013-11-11,62.8,52.2,43.5,48.3,44.0,38.8,98,75,57,30.14,29.97,8,2,0,0.00
2013-11-12,69.4,50.3,36.7,48.7,40.8,29.3,99,73,37,30.14,29.82,19,3,0,0.00
2013-11-13,46.9,37.9,31.1,33.3,26.5,22.8,96,65,39,30.31,30.13,9,3,0,0.02
2013-11-14,58.1,41.7,28.4,38.2,29.0,16.9,93,66,21,30.31,30.16,6,1,0,0.00
2013-11-15,70.9,54.8,39.9,60.7,49.6,38.0,99,85,48,30.19,30.03,4,1,0,0.28
2013-11-16,75.9,64.0,58.5,67.4,61.8,58.2,99,93,73,30.06,29.96,5,2,0,0.06
2013-11-17,77.5,65.7,57.6,69.8,63.7,56.8,99,94,76,29.99,29.75,7,2,0,0.01
2013-11-18,73.4,67.2,59.0,70.6,65.9,50.7,99,96,74,29.75,29.56,10,4,0,0.03
2013-11-19,58.8,52.6,46.0,49.8,38.8,35.0,78,60,41,30.09,29.68,11,4,0,0.00
2013-11-20,60.3,51.4,44.4,50.2,45.7,39.3,92,81,67,30.21,30.06,12,4,0,0.00
2013-11-21,65.1,57.3,52.7,61.6,55.7,50.1,99,95,86,30.26,30.18,8,3,0,0.01
2013-11-22,72.0,61.2,52.0,64.5,59.1,51.7,99,93,77,30.18,29.89,9,2,0,0.00
2013-11-23,67.8,58.5,50.0,64.1,56.9,42.0,99,95,74,29.89,29.80,6,2,0,0.07
2013-11-24,49.6,38.6,30.6,39.6,20.7,11.0,71,49,33,30.35,29.87,12,4,0,0.00
2013-11-25,46.2,36.2,27.7,37.8,24.8,13.7,92,64,49,30.40,30.19,9,3,0,0.00
2013-11-26,65.3,53.5,40.3,62.0,51.6,38.4,99,94,81,30.19,29.69,7,3,0,0.05
2013-11-27,55.8,43.6,35.6,55.2,42.4,30.1,98,96,80,29.92,29.31,7,3,0,0.10
2013-11-28,46.6,36.1,29.3,31.6,27.9,24.8,93,74,48,30.32,29.94,7,2,0,0.00
2013-11-29,54.5,43.9,34.3,36.2,33.5,30.3,93,69,40,30.40,30.29,9,3,0,0.00
2013-11-30,58.5,47.2,38.8,49.1,42.6,33.9,94,85,70,30.38,30.14,14,4,0,0.00
2013-12-1,61.0,50.9,43.9,53.7,48.8,42.6,99,93,77,30.12,29.83,5,1,0,0.01
2013-12-2,56.7,51.0,46.0,51.9,48.6,44.1,99,92,79,29.83,29.59,5,2,0,0.00
2013-12-3,60.6,49.6,39.6,49.2,42.4,36.6,97,79,45,29.85,29.66,5,1,0,0.00
2013-12-4,63.7,57.5,52.0,63.4,56.9,49.9,99,98,92,29.91,29.83,3,0,0,0.40
2013-12-5,72.5,62.8,51.3,69.5,62.0,51.0,99,97,90,30.00,29.91,6,1,0,0.00
2013-12-6,71.4,66.9,62.8,68.7,66.0,62.5,99,97,91,29.98,29.88,10,5,0,0.00
2013-12-7,67.6,54.5,43.5,67.3,54.1,43.2,99,98,95,30.22,29.88,12,5,0,0.46
2013-12-8,50.2,45.4,43.2,48.6,44.9,42.9,99,98,94,30.20,30.06,10,4,0,0.16
2013-12-9,67.1,55.0,45.1,65.6,54.5,44.8,99,98,94,30.06,29.89,5,1,0,0.00
2013-12-10,64.9,54.6,38.5,64.0,54.2,38.2,99,98,96,30.13,29.65,14,3,0,0.16
2013-12-11,54.1,40.3,31.6,38.2,33.1,28.1,99,78,46,30.29,30.10,4,1,0,0.00
2013-12-12,49.1,39.5,31.8,33.0,31.1,27.6,95,74,46,30.22,30.06,6,2,0,0.00
2013-12-13,50.5,38.6,28.4,35.0,29.9,23.6,99,75,38,30.25,30.11,6,1,0,0.00
2013-12-14,65.3,52.7,35.1,64.6,49.4,34.1,99,89,68,30.13,29.54,9,3,0,2.58
2013-12-15,61.3,53.6,42.6,61.0,52.5,39.3,99,96,88,29.88,29.48,5,2,0,0.12
2013-12-16,55.9,44.4,35.6,43.8,38.2,33.6,99,81,49,30.02,29.87,6,2,0,0.00
2013-12-17,60.1,54.1,39.6,53.0,48.4,39.1,99,82,69,30.00,29.77,14,5,0,0.00
2013-12-18,56.3,44.8,33.6,49.5,32.5,25.9,85,64,38,30.15,29.79,8,2,0,0.00
2013-12-19,57.9,46.3,32.5,49.4,40.9,29.1,99,83,59,30.19,30.10,7,2,0,0.00
2013-12-20,68.0,56.9,45.1,62.8,55.2,44.8,99,94,83,30.11,29.98,5,1,0,0.00
2013-12-21,68.9,63.7,58.5,66.5,62.8,58.2,99,97,91,30.02,29.95,6,2,0,0.00
2013-12-22,72.3,67.0,64.0,70.2,66.3,63.6,99,98,93,29.98,29.92,8,4,0,0.93
2013-12-23,69.8,66.0,60.3,68.6,65.5,60.0,99,98,94,29.96,29.83,11,5,0,0.23
2013-12-24,60.3,45.5,37.8,60.0,42.4,30.9,99,89,72,30.19,29.83,12,3,0,0.34
2013-12-25,46.4,38.6,31.3,38.2,32.9,26.3,91,80,69,30.33,30.17,6,3,0,0.00
2013-12-26,46.9,43.9,40.8,46.6,42.5,38.4,99,95,91,30.16,30.03,5,2,0,0.05
2013-12-27,54.0,44.2,38.1,41.8,37.8,35.4,95,80,53,30.24,30.11,6,2,0,0.01
2013-12-28,63.7,46.5,36.1,46.7,38.9,33.8,94,76,44,30.22,29.97,4,1,0,0.00
2013-12-29,65.3,61.0,51.4,63.9,59.2,45.8,99,94,81,29.97,29.53,21,5,0,0.41
2013-12-30,58.8,51.2,44.8,52.3,48.9,44.5,99,92,74,29.92,29.72,4,1,0,0.01
2013-12-31,55.2,47.3,39.2,46.4,40.2,33.6,99,78,50,30.18,29.89,5,1,0,0.00
2014-1-1,57.2,46.1,35.8,49.3,40.0,31.4,99,80,61,30.23,29.95,3,1,0,0.07
2014-1-2,60.3,51.0,47.3,60.0,50.7,47.0,99,99,98,29.95,29.31,8,1,0,0.96